COMS 1

Last updated on Thu Jul 03 2025 00:02:22 GMT+0000 (Coordinated Universal Time)

1 36744U 10032A 25183.63089472 -.00000339 00000+0 00000+0 0 9992 2 36744 3.9203 79.7325 0000922 12.0353 184.3670 1.00271419 47581
UTC large
Height (km)
Speed (km/s)
/
Latitude / Longitude
Inclination (degrees)
Orbital Period (minutes)
Azimuth
Elevation
Range (km)
Doppler Factor

Next 0 passes for location: London (51.5072 / 0.1276)

Sorry there are no passes over London.